Flag for U.S.A. Weather past 2 weeks in Baton Rouge, Louisiana, U.S.A.

Now
71 °F

Mostly cloudy.


Feels Like: 73 °F
Forecast: 56 / 71 °F
Wind: 16 mph from Southwest

Location: Baton Rouge Metropolitan - Ryan Field

Current Time: Dec 22, 2014 at 6:56:07 PM

Latest Report: Dec 22, 2014 at 5:53 PM


Visibility: 10 mi

Pressure: 29.68 "Hg

Humidity: 76%

Dew point: 63 °F

Location of Baton RougeLocation

Historic Weather in Baton Rouge — Graph

°F

Baton Rouge temperature yesterday

Maximum temperature yesterday: 60 °F (at 2:53 PM)
Minimum temperature yesterday: 44 °F (at 12:04 AM)
Average temperature yesterday: 52 °F

Past Weeks' High & Low Weather Summary

 TemperatureHumidityPressure
High77 °F (Dec 15, 2:53 PM)97% (Dec 14, 6:53 AM)30.38 "Hg (Dec 14, 6:53 AM)
Low35 °F (Dec 17, 5:53 AM)28% (Dec 9, 1:53 PM)29.65 "Hg (Dec 22, 3:53 PM)
Average54 °F74%30.16 "Hg
* Reported Dec 7 4:53 PM — Dec 22 4:53 PM, Baton Rouge, Weather by CustomWeather, © 2014

Note: Actual official high and low records may vary slightly from our data, if they occured in-between our weather recording intervals... More about our weather records

Advertising

Baton Rouge weather history for previous 24 hours

 ConditionsComfort  
Time TempWeatherWind HumidityBarometerVisibility
4:53 PM
Dec 22
72 °FPartly sunny.15 mph71%29.66 "Hg10 mi
3:53 PM74 °FScattered clouds.13 mph67%29.65 "Hg10 mi
2:53 PM76 °FBroken clouds.15 mph62%29.67 "Hg10 mi
1:53 PM74 °FPartly sunny.12 mph69%29.68 "Hg10 mi
1:00 PM72 °FPartly sunny.12 mph76%29.70 "Hg10 mi
11:53 AM69 °FLow clouds.13 mph81%29.74 "Hg7 mi
11:00 AM65 °FLow clouds.6 mph85%29.78 "Hg5 mi
9:53 AM60 °FFog.7 mph96%29.80 "Hg1 mi
8:53 AM58 °FFog.7 mph97%29.82 "Hg1 mi
7:53 AM56 °FFog.6 mph97%29.82 "Hg0 mi
6:53 AM55 °FLight rain. Fog.6 mph96%29.83 "Hg0 mi
5:53 AM54 °FFog.No wind97%29.85 "Hg0 mi
4:53 AM54 °FFog.3 mph97%29.85 "Hg0 mi
3:53 AM54 °FFog.6 mph97%29.86 "Hg0 mi
2:53 AM54 °FFog.3 mph97%29.88 "Hg1 mi
2:03 AM53 °FFog.5 mph96%29.88 "Hg1 mi
1:53 AM53 °FFog.5 mph96%29.88 "Hg1 mi
12:53 AM53 °FFog.7 mph93%29.89 "Hg2 mi
11:53 PM
Dec 21
52 °FFog.6 mph93%29.93 "Hg3 mi
10:53 PM50 °FPartly cloudy.5 mph93%29.96 "Hg7 mi
9:53 PM51 °FPassing clouds.7 mph89%29.95 "Hg8 mi
8:53 PM52 °FOvercast.No wind89%29.97 "Hg10 mi
7:53 PM53 °FOvercast.3 mph89%29.96 "Hg10 mi
6:53 PM54 °FPassing clouds.6 mph86%29.96 "Hg10 mi
Weather by CustomWeather, © 2014

See weather overviewHow to use our weather pages